Kosmos-1333

operational
NORAD ID: 13033 Int'l Des: 1982-003 Owner: VMF Country: SU
LEOCIRCULARPOLAR

Über Kosmos-1333

Beschreibung wird geladen...

Live-Position

3D-Globus wird geladen...

Nächste Überflüge

Höhenverlauf

Altitude vs Time

uPlot chart will show altitude changes over time

Zweizeiliger Elementsatz

1 13033U 82003A 26061.05451569 .00000079 00000-0 67555-4 0 9991
2 13033 82.9379 244.3817 0033258 126.4343 351.6756 13.73463871211485
Epoch: 2. März 2026 • Age: 31 hours

Aktueller Status

Höhe 989.6 km
Geschwindigkeit 7.36 km/s
Subsatellitenpunkt -20.59°S, 153.57°E
Startdatum 14. Jan. 1982
Alter 44.1 years
Typ other

Technische Details

Klassifizierung Payload
Masse 800.00 kg
Trockenmasse 800.00 kg
Gesamtmasse 800.00 kg
Länge 5.00 m
Durchmesser 2.10 m
Spannweite 17.00 m
Form Cyl + Ant
Hersteller OAZ
Bus-Typ KAUR-1 11F627
Phasenstatus In Orbit
Besitzer/Staat VMF/SU

Große Konstellationen

Loading constellations...